[[{"header":{"parameterUnit":"m.s-1","parameterCategory":2,"la1":30.2991,"la2":30.254,"lo1":-89.0895,"lo2":-89.0444,"dy":0.0017,"dx":0.0017,"nx":28,"ny":28,"refTime":"2023-11-17T03:00:00:Z","depth":"0","parameterNumber":2,"parameterNumberName":"U-component_of_CURRENTS"},"data":[0,0,0,0,0,0,0,0,0,0,0,0,0,0,0,0,0,0,0,0,0,0,0,0,0,0,0,0,0,0,0,0,0,0,0,0,0,0,0,0,0,0,0,0,0,0,0,0,0,0,0,0,0,0,0,0,0,0,0.3253,0.3253,0,0.3255,0.3255,0.3255,0.3239,0.3239,0.3239,0.3239,0.3209,0.3208,0.3208,0,0,0,0,0,0,0,0,0,0,0,0,0,0.3245,0.3245,0.3253,0.3253,0.3254,0.3255,0.3255,0.3255,0.3239,0.3239,0.3239,0.3238,0.3209,0.3208,0.3208,0,0,0,0,0,0,0,0,0,0,0,0,0,0.3246,0.3245,0.3253,0.3247,0.3247,0.3255,0.3255,0.3255,0.3239,0.3239,0.3239,0.3238,0.3209,0.3208,0.3207,0.321,0,0,0.3205,0.3205,0,0,0,0,0,0,0,0,0.3246,0.3246,0.3248,0.3248,0.3248,0.3248,0.3241,0.3239,0.324,0.3241,0.3239,0.3238,0.322,0.3219,0.3218,0.3209,0.3208,0.3205,0.3204,0.3204,0.3204,0,0,0,0,0,0,0,0.3246,0.3246,0.3252,0.3248,0.3248,0.3248,0.3247,0.3241,0.3231,0.324,0.324,0.3243,0.322,0.3219,0.3217,0.3207,0.3205,0.3204,0.3204,0.3203,0.3236,0.3237,0,0,0,0,0,0,0.3249,0.3246,0.3252,0.3252,0.3248,0.3248,0.3248,0.3247,0.3231,0.3229,0.3243,0.3242,0.322,0.3218,0.3216,0.3259,0.3204,0.3203,0.3203,0.3234,0.3236,0.3238,0,0,0,0,0,0,0.3249,0.325,0.3252,0.3251,0.3251,0.3249,0.3248,0.3247,0.3248,0.3234,0.3231,0.3246,0.322,0.3217,0.3219,0.3256,0.3203,0.3202,0.3233,0.3235,0.3237,0.3319,0,0,0,0,0,0,0.3249,0.3249,0.3247,0.3251,0.3252,0.3263,0.3249,0.3248,0.3251,0.325,0.3236,0.3232,0.3219,0.322,0.3218,0.3254,0.3201,0.3231,0.3234,0.3236,0.3315,0.3324,0.3331,0,0,0,0,0,0.3248,0.3248,0.3247,0.3248,0.3249,0.3264,0.3264,0.326,0.3252,0.3258,0.325,0.3233,0.3235,0.322,0.3218,0.3254,0.323,0.3233,0.3236,0.3311,0.3322,0.3331,0,0,0,0,0,0,0.3236,0.3247,0.3246,0.3246,0.3258,0.3262,0.3268,0.3264,0.3262,0.3259,0.3242,0.3239,0.3259,0.3241,0.3225,0.3271,0.3233,0.3236,0.3291,0.3301,0.3309,0.3305,0.3201,0,0,0,0,0,0.3235,0.3239,0.3252,0.3251,0.3264,0.3267,0.3271,0.3269,0.327,0.3268,0.3262,0.3259,0.327,0.3271,0.3271,0.3289,0.3273,0.3313,0.3321,0.3328,0.3324,0.3353,0.3364,0.3248,0.3248,0.3248,0,0,0.3228,0.3236,0.3235,0.325,0.326,0.328,0.3268,0.328,0.3295,0.3265,0.3284,0.3285,0.328,0.3307,0.3315,0.3297,0.3351,0.3332,0.3338,0.3329,0.3357,0.3369,0.3379,0.325,0.3249,0.3249,0,0,0.3228,0.323,0.3242,0.3259,0.3279,0.3285,0.3292,0.3305,0.3314,0.3331,0.3324,0.3345,0.3348,0.3364,0.337,0.3421,0.3394,0.3424,0.3466,0.3495,0.3505,0.3513,0.3499,0.3506,0.343,0.3431,0.3431,0,0.3219,0.323,0.3247,0.3271,0.3279,0.3292,0.3307,0.3329,0.3338,0.3354,0.3345,0.3384,0.338,0.3429,0.3448,0.3443,0.3435,0.343,0.3507,0.3515,0.3522,0.3506,0.3512,0.3435,0.3434,0.3434,0.3434,0,0.3232,0.3245,0.3258,0.329,0.3306,0.3318,0.3353,0.3376,0.3388,0.3406,0.3455,0.3464,0.3486,0.3502,0.3488,0.3548,0.3517,0.3515,0.3482,0.3539,0.3517,0.3522,0.3441,0.344,0.3438,0.3437,0,0,0.3188,0.3253,0.3252,0.3271,0.331,0.3322,0.337,0.341,0.3441,0.3478,0.352,0.3563,0.3574,0.3581,0.3587,0.3614,0.3658,0.3586,0.3586,0.3572,0.3693,0.3589,0.3584,0.3674,0.3675,0.3676,0.3654,0,0.3185,0.3226,0.3256,0.3285,0.3307,0.3344,0.3384,0.3426,0.3467,0.3516,0.3566,0.3601,0.3607,0.3619,0.3659,0.3659,0.3676,0.3661,0.3638,0.3637,0.354,0.3589,0.3443,0.3404,0.3658,0.3659,0.366,0,0.3168,0.3203,0.3232,0.3284,0.3297,0.3321,0.3377,0.3416,0.3504,0.3539,0.3609,0.3636,0.37,0.3685,0.3739,0.373,0.3712,0.3709,0.3708,0.3583,0.3543,0.339,0.3403,0.3345,0.3667,0.3666,0.3666,0,0.3108,0.317,0.3188,0.3206,0.3279,0.3303,0.334,0.342,0.3453,0.3555,0.3589,0.3676,0.3713,0.3739,0.3744,0.3742,0.3777,0.3772,0.366,0.3651,0.3505,0.348,0.3457,0.3792,0.3792,0.3792,0.3792,0,0.307,0.3083,0.3167,0.3179,0.3203,0.3269,0.3303,0.3366,0.345,0.3487,0.3594,0.3633,0.373,0.3763,0.3757,0.3723,0.3792,0.3664,0.3647,0.3527,0.3505,0.3429,0.3408,0.3791,0.3792,0.3792,0.3792,0,0.299,0.3044,0.307,0.3152,0.3173,0.3189,0.3263,0.3291,0.3393,0.3449,0.3477,0.3608,0.3656,0.3717,0.3751,0.3721,0.3594,0.3662,0.3492,0.3455,0.3274,0.3263,0.309,0.2997,0.353,0.3527,0.3525,0,0.2952,0.2963,0.303,0.3039,0.3074,0.3116,0.3138,0.3241,0.3274,0.3413,0.3425,0.3519,0.3558,0.3588,0.3563,0.3535,0.3476,0.336,0.3329,0.324,0.3218,0.3131,0.3061,0.3166,0.3162,0.3158,0.3154,0,0.2886,0.2908,0.2935,0.2949,0.297,0.2989,0.3039,0.3057,0.3174,0.3227,0.3291,0.3338,0.3404,0.333,0.3317,0.3284,0.3202,0.3272,0.3242,0.2975,0.2817,0.2727,0.3188,0.3118,0.3122,0.3125,0.3126,0.3128,0.2828,0.2813,0.2839,0.2832,0.2851,0.2839,0.2816,0.2878,0.2898,0.2941,0.308,0.3086,0.3119,0.3088,0.3045,0.2906,0.2929,0.2809,0.2814,0.2744,0.2612,0.2967,0.2844,0.2846,0.2848,0.285,0.2851,0,0.2716,0.2706,0.2715,0.2688,0.2645,0.2702,0.2714,0.267,0.2634,0.2721,0.2749,0.2744,0.2674,0.2697,0.2619,0.2498,0.2404,0.2418,0.2295,0.226,0.2631,0.2575,0.2313,0.2313,0.2313,0.2313,0.2313,0.2313,0.2654,0.2597,0.2585,0.2473,0.2458,0.2363,0.2338,0.2307,0.2334,0.2291,0.2278,0.2338,0.2467,0.2438,0.2326,0.2256,0.2114,0.1961,0.1997,0.2311,0.2349,0.2386,0.2331,0.2022,0.2021,0.1529,0.1525,0.1522]},{"header":{"parameterUnit":"m.s-1","parameterCategory":2,"la1":30.2991,"la2":30.254,"lo1":-89.0895,"lo2":-89.0444,"dy":0.0017,"dx":0.0017,"nx":28,"ny":28,"refTime":"2023-11-17T03:00:00:Z","depth":"0","parameterNumber":3,"parameterNumberName":"V-component_of_CURRENTS"},"data":[0,0,0,0,0,0,0,0,0,0,0,0,0,0,0,0,0,0,0,0,0,0,0,0,0,0,0,0,0,0,0,0,0,0,0,0,0,0,0,0,0,0,0,0,0,0,0,0,0,0,0,0,0,0,0,0,0,0,-0.0196,-0.0196,0,-0.0221,-0.0221,-0.0222,-0.0249,-0.0249,-0.0249,-0.0249,-0.0292,-0.0293,-0.0294,0,0,0,0,0,0,0,0,0,0,0,0,0,-0.0199,-0.0198,-0.0196,-0.0196,-0.0196,-0.0221,-0.0221,-0.0222,-0.0248,-0.0249,-0.0249,-0.0249,-0.0292,-0.0293,-0.0294,0,0,0,0,0,0,0,0,0,0,0,0,0,-0.0211,-0.0198,-0.0196,-0.021,-0.0211,-0.0221,-0.0221,-0.0222,-0.0248,-0.0249,-0.0249,-0.0249,-0.0291,-0.0293,-0.0294,-0.0301,0,0,-0.0299,-0.03,0,0,0,0,0,0,0,0,-0.021,-0.0211,-0.0208,-0.0209,-0.021,-0.0229,-0.0238,-0.0248,-0.0248,-0.0237,-0.0249,-0.0249,-0.0271,-0.0274,-0.0282,-0.0303,-0.0305,-0.0299,-0.03,-0.0301,-0.0302,0,0,0,0,0,0,0,-0.0209,-0.021,-0.0209,-0.0208,-0.0209,-0.0224,-0.0226,-0.024,-0.0256,-0.0238,-0.024,-0.0238,-0.0272,-0.0281,-0.0284,-0.0306,-0.0299,-0.0301,-0.0302,-0.0302,-0.0327,-0.0327,0,0,0,0,0,0,-0.0198,-0.0209,-0.0208,-0.0209,-0.0207,-0.0224,-0.0226,-0.0225,-0.0255,-0.0259,-0.0238,-0.0239,-0.0278,-0.0282,-0.0285,-0.0284,-0.0301,-0.0303,-0.0304,-0.0327,-0.0327,-0.0327,0,0,0,0,0,0,-0.0198,-0.0198,-0.0207,-0.0207,-0.0209,-0.0223,-0.0222,-0.0226,-0.023,-0.0254,-0.0258,-0.0238,-0.0278,-0.0283,-0.0289,-0.0286,-0.0303,-0.0305,-0.0328,-0.0327,-0.0327,-0.0288,0,0,0,0,0,0,-0.0198,-0.0198,-0.0193,-0.0207,-0.0209,-0.0204,-0.0222,-0.0226,-0.0228,-0.023,-0.0255,-0.026,-0.0279,-0.0286,-0.029,-0.0289,-0.0306,-0.0328,-0.0327,-0.0327,-0.029,-0.0286,-0.0283,0,0,0,0,0,-0.0198,-0.0188,-0.0192,-0.0192,-0.0201,-0.0203,-0.0205,-0.0218,-0.0227,-0.0224,-0.0241,-0.0259,-0.0286,-0.0287,-0.0292,-0.0291,-0.0328,-0.0328,-0.0327,-0.0291,-0.0287,-0.0283,0,0,0,0,0,0,-0.0184,-0.019,-0.0195,-0.0187,-0.019,-0.0206,-0.0204,-0.0213,-0.0225,-0.0226,-0.0253,-0.0258,-0.0264,-0.028,-0.0281,-0.0296,-0.0311,-0.0311,-0.0282,-0.0279,-0.0275,-0.0249,-0.0307,0,0,0,0,0,-0.0178,-0.0172,-0.0181,-0.0172,-0.0174,-0.0189,-0.019,-0.0197,-0.0208,-0.0214,-0.0232,-0.0251,-0.0266,-0.0273,-0.0289,-0.0294,-0.0299,-0.0297,-0.0294,-0.0291,-0.0273,-0.0279,-0.0274,-0.0324,-0.0324,-0.0324,0,0,-0.0171,-0.017,-0.0168,-0.0168,-0.0175,-0.0166,-0.0191,-0.0188,-0.0178,-0.0216,-0.0213,-0.024,-0.0264,-0.0272,-0.0276,-0.0284,-0.0281,-0.0291,-0.0288,-0.0271,-0.0278,-0.0273,-0.0268,-0.0324,-0.0324,-0.0324,0,0,-0.0146,-0.0153,-0.0139,-0.0139,-0.0139,-0.0146,-0.0142,-0.0155,-0.0161,-0.016,-0.0188,-0.0207,-0.0228,-0.0247,-0.0259,-0.0246,-0.0264,-0.0257,-0.0219,-0.0226,-0.0221,-0.0217,-0.0221,-0.0217,-0.0255,-0.0255,-0.0255,0,-0.0136,-0.0117,-0.0135,-0.0119,-0.0109,-0.0133,-0.0111,-0.012,-0.0132,-0.0129,-0.015,-0.0182,-0.0213,-0.0218,-0.0219,-0.0239,-0.024,-0.0233,-0.022,-0.0217,-0.0213,-0.0218,-0.0215,-0.0253,-0.0254,-0.0254,-0.0254,0,-0.0097,-0.0085,-0.0077,-0.0062,-0.0057,-0.0042,-0.0052,-0.0051,-0.0063,-0.0071,-0.0079,-0.0125,-0.0141,-0.0164,-0.0189,-0.0185,-0.0194,-0.0216,-0.0227,-0.0206,-0.0212,-0.021,-0.0251,-0.0251,-0.0252,-0.0252,0,0,-0.0058,-0.0052,-0.0043,-0.0024,-0.0023,-0.0006,0.0004,0.0016,0.0041,0.0003,0.0027,-0.0029,-0.0058,-0.0072,-0.0117,-0.0131,-0.0127,-0.0159,-0.016,-0.0156,-0.0131,-0.015,-0.0149,-0.0144,-0.0144,-0.0143,-0.0146,0,-0.0017,0.0027,0.0019,0.0068,0.0089,0.0074,0.0096,0.0101,0.0096,0.011,0.0053,0.0051,-0.0021,-0.003,-0.0057,-0.01,-0.0117,-0.0123,-0.0157,-0.0157,-0.0172,-0.0146,-0.0122,-0.0124,-0.0144,-0.0143,-0.0143,0,0.0036,0.006,0.0111,0.0144,0.0154,0.0181,0.0224,0.0241,0.024,0.0233,0.0207,0.0164,0.0127,0.0064,0.0,0.0003,-0.0057,-0.0099,-0.0101,-0.0125,-0.0171,-0.0148,-0.0119,-0.0229,-0.0139,-0.014,-0.014,0,0.0098,0.0132,0.0181,0.0192,0.022,0.0247,0.0268,0.0284,0.0319,0.0313,0.0338,0.0272,0.026,0.0175,0.0063,0.004,0.0004,-0.0043,-0.0116,-0.0119,-0.0107,-0.0109,-0.0179,-0.0081,-0.0081,-0.0081,-0.0081,0,0.0157,0.0199,0.0216,0.0248,0.0323,0.0317,0.0397,0.0403,0.0431,0.0498,0.0409,0.0442,0.029,0.0237,0.0118,0.0019,0.0041,-0.0093,-0.0115,-0.0094,-0.0095,-0.0199,-0.0285,-0.0082,-0.0082,-0.0082,-0.0082,0,0.0222,0.0229,0.0293,0.0333,0.0355,0.0415,0.0484,0.054,0.0552,0.0636,0.0637,0.0585,0.0517,0.0361,0.0234,0.0108,-0.0068,-0.0049,-0.0016,-0.0035,-0.0217,-0.0302,-0.0394,-0.0446,-0.0121,-0.0122,-0.0122,0,0.0257,0.0295,0.0367,0.0416,0.0441,0.0517,0.0576,0.0603,0.0668,0.0736,0.0788,0.0736,0.0725,0.0521,0.0285,0.0082,-0.0057,-0.0045,-0.0098,-0.0208,-0.0319,-0.0377,-0.0418,-0.0068,-0.0068,-0.0068,-0.0068,0,0.0329,0.0356,0.041,0.0505,0.0578,0.0664,0.0748,0.0818,0.0872,0.0946,0.1031,0.1027,0.0829,0.0624,0.032,0.0172,-0.0126,-0.005,-0.0167,-0.0279,-0.0342,-0.0408,-0.0089,-0.0067,-0.0067,-0.0067,-0.0067,-0.0067,0.0389,0.044,0.0507,0.0601,0.0688,0.08,0.0882,0.098,0.1103,0.1224,0.1211,0.124,0.0924,0.0516,0.0297,-0.0096,-0.0125,-0.0219,-0.0309,-0.0354,-0.0415,-0.0096,-0.0104,-0.0104,-0.0104,-0.0104,-0.0105,0,0.0454,0.0508,0.0595,0.0705,0.0805,0.0838,0.0989,0.1081,0.124,0.1349,0.1419,0.1284,0.0906,0.0512,-0.0032,-0.0302,-0.0399,-0.0455,-0.0527,-0.0556,-0.026,-0.0269,-0.0309,-0.0309,-0.0309,-0.0309,-0.0309,-0.0309,0.0493,0.0579,0.0617,0.0781,0.0861,0.0998,0.109,0.124,0.1351,0.1488,0.1508,0.1486,0.1172,0.0207,-0.0435,-0.0573,-0.0744,-0.0794,-0.0902,-0.0703,-0.0687,-0.0672,-0.0699,-0.0829,-0.0829,-0.1131,-0.1135,-0.1137]}],[{"header":{"parameterUnit":"m.s-1","parameterCategory":2,"la1":30.2991,"la2":30.254,"lo1":-89.0895,"lo2":-89.0444,"dy":0.0017,"dx":0.0017,"nx":28,"ny":28,"refTime":"2023-11-17T03:00:00:Z","depth":"2","parameterNumber":2,"parameterNumberName":"U-component_of_CURRENTS"},"data":[0,0,0,0,0,0,0,0,0,0,0,0,0,0,0,0,0,0,0,0,0,0,0,0,0,0,0,0,0,0,0,0,0,0,0,0,0,0,0,0,0,0,0,0,0,0,0,0,0,0,0,0,0,0,0,0,0,0,0.2547,0.2548,0,0.2567,0.2567,0.2567,0.2571,0.2571,0.2571,0.2571,0.2589,0.2589,0.2589,0,0,0,0,0,0,0,0,0,0,0,0,0,0.2521,0.2521,0.2547,0.2548,0.2549,0.2567,0.2567,0.2567,0.2571,0.2571,0.2571,0.2571,0.2589,0.2589,0.2589,0,0,0,0,0,0,0,0,0,0,0,0,0,0.2532,0.2521,0.2547,0.2555,0.2557,0.2567,0.2567,0.2567,0.2571,0.2571,0.2571,0.2571,0.2589,0.2589,0.2589,0.2586,0,0,0.2591,0.2591,0,0,0,0,0,0,0,0,0.2531,0.2532,0.2554,0.2555,0.2556,0.257,0.2565,0.2575,0.2571,0.2561,0.2571,0.2572,0.2585,0.2585,0.2583,0.2587,0.2588,0.2591,0.2591,0.2591,0.2591,0,0,0,0,0,0,0,0.2531,0.2532,0.2551,0.2554,0.2556,0.2562,0.2563,0.2566,0.2568,0.2562,0.2563,0.2572,0.2585,0.2583,0.2584,0.2588,0.2591,0.2591,0.2591,0.2592,0.2662,0.2663,0,0,0,0,0,0,0.2535,0.2531,0.2551,0.2552,0.2549,0.2562,0.2563,0.2562,0.2568,0.257,0.2571,0.2572,0.2582,0.2583,0.2584,0.2643,0.2591,0.2592,0.2592,0.266,0.2662,0.2664,0,0,0,0,0,0,0.2534,0.2536,0.255,0.2546,0.2548,0.2562,0.2561,0.2563,0.2579,0.2576,0.2577,0.2589,0.2582,0.2584,0.2609,0.2641,0.2592,0.2592,0.2658,0.2661,0.2663,0.272,0,0,0,0,0,0,0.2533,0.2536,0.2544,0.2546,0.2549,0.2563,0.2561,0.2563,0.2585,0.2586,0.2592,0.2592,0.2582,0.2608,0.2609,0.2641,0.2592,0.2656,0.2659,0.2662,0.2716,0.2724,0.2731,0,0,0,0,0,0.2532,0.2537,0.2544,0.2547,0.2557,0.2564,0.2566,0.2574,0.2586,0.2591,0.2605,0.2593,0.2628,0.261,0.261,0.2643,0.2655,0.2659,0.2662,0.2713,0.2723,0.2731,0,0,0,0,0,0,0.2539,0.2539,0.2546,0.2554,0.2564,0.2566,0.2582,0.2588,0.2602,0.2616,0.2608,0.261,0.265,0.2638,0.2617,0.2674,0.2642,0.2646,0.2681,0.269,0.2697,0.2718,0.2593,0,0,0,0,0,0.2544,0.2545,0.2551,0.2563,0.2571,0.2582,0.2592,0.26,0.2611,0.2619,0.2626,0.2641,0.2662,0.2668,0.2683,0.2704,0.2698,0.2728,0.2736,0.2742,0.2761,0.277,0.2779,0.2676,0.2676,0.2676,0,0,0.2543,0.2555,0.255,0.2565,0.2578,0.2593,0.2588,0.2613,0.2631,0.2619,0.2656,0.2672,0.2677,0.271,0.2726,0.2703,0.2769,0.2746,0.2752,0.2768,0.2774,0.2784,0.2793,0.2678,0.2678,0.2677,0,0,0.2555,0.2564,0.257,0.2583,0.2614,0.2618,0.2631,0.2648,0.2663,0.2696,0.2703,0.274,0.2758,0.2772,0.278,0.2836,0.2815,0.2843,0.2888,0.2895,0.2904,0.2911,0.2917,0.2924,0.2836,0.2837,0.2837,0,0.2563,0.257,0.2575,0.2599,0.2613,0.2633,0.2649,0.2668,0.2694,0.2718,0.2719,0.2786,0.2791,0.2836,0.2864,0.2854,0.2853,0.285,0.2904,0.2912,0.2918,0.2922,0.2929,0.284,0.2839,0.2839,0.2839,0,0.2578,0.2592,0.2605,0.2633,0.2647,0.2669,0.2693,0.2724,0.2753,0.2777,0.2842,0.2858,0.2894,0.2907,0.2907,0.2962,0.2946,0.2918,0.2879,0.2932,0.2933,0.2939,0.2844,0.2843,0.2842,0.2841,0,0,0.2553,0.2603,0.2602,0.2624,0.2668,0.2677,0.2725,0.2764,0.2804,0.2851,0.2899,0.2959,0.2983,0.2995,0.2999,0.3017,0.3066,0.2997,0.2996,0.2999,0.3088,0.3,0.2998,0.3044,0.3046,0.3047,0.3069,0,0.2561,0.2597,0.262,0.2653,0.2669,0.271,0.2752,0.28,0.2841,0.2894,0.2944,0.2996,0.3008,0.3034,0.306,0.3072,0.3088,0.3064,0.3041,0.3041,0.2952,0.3004,0.2772,0.2765,0.3075,0.3076,0.3077,0,0.255,0.2578,0.2607,0.2665,0.2678,0.2715,0.2779,0.2817,0.2902,0.2941,0.3008,0.3042,0.3111,0.3093,0.315,0.3135,0.3128,0.3127,0.3126,0.3032,0.2965,0.2764,0.2765,0.3088,0.3087,0.3086,0.3085,0,0.2503,0.256,0.2582,0.2601,0.2675,0.2716,0.2765,0.2844,0.2879,0.2974,0.3012,0.3093,0.3135,0.3155,0.318,0.3166,0.322,0.3183,0.3095,0.3088,0.2881,0.2853,0.3208,0.3208,0.3208,0.3208,0.3208,0,0.2483,0.2498,0.2574,0.2588,0.2633,0.2702,0.2757,0.2822,0.2909,0.2952,0.3037,0.3073,0.3155,0.3192,0.3196,0.3177,0.3228,0.3123,0.3094,0.2894,0.2868,0.3137,0.3129,0.3209,0.3209,0.3209,0.3209,0,0.2422,0.2466,0.2497,0.2584,0.261,0.2647,0.274,0.2781,0.2881,0.2932,0.2967,0.3079,0.313,0.3184,0.3221,0.3185,0.3176,0.3145,0.2913,0.2855,0.3034,0.3029,0.3051,0.3049,0.3046,0.3044,0.3043,0,0.2396,0.2406,0.2474,0.2489,0.2536,0.2596,0.2636,0.2748,0.2781,0.2914,0.2928,0.3028,0.3054,0.3095,0.3065,0.3051,0.312,0.2807,0.2737,0.3053,0.3022,0.302,0.3017,0.2486,0.248,0.2475,0.2471,0,0.2344,0.2371,0.2396,0.2421,0.2463,0.2489,0.256,0.258,0.2701,0.2748,0.2809,0.2854,0.2917,0.2803,0.2808,0.2765,0.2796,0.2703,0.309,0.2563,0.2521,0.249,0.2506,0.2427,0.2431,0.2434,0.2437,0.2438,0.2303,0.2299,0.2323,0.2337,0.2368,0.237,0.2355,0.2419,0.2441,0.2485,0.2611,0.2592,0.2624,0.2507,0.2422,0.2362,0.2551,0.2422,0.2437,0.2457,0.2389,0.2345,0.2205,0.2208,0.2211,0.2213,0.2215,0,0.2224,0.2226,0.2234,0.2224,0.2197,0.2261,0.2275,0.2228,0.2192,0.2276,0.2301,0.212,0.2047,0.208,0.192,0.191,0.1893,0.1825,0.1778,0.1824,0.1865,0.1766,0.1417,0.1414,0.1412,0.141,0,0,0.2185,0.214,0.2126,0.2037,0.204,0.197,0.1951,0.1905,0.1913,0.1859,0.1833,0.1977,0.2032,0.1704,0.1656,0.1507,0.1657,0.1449,0.2094,0.2087,0.2125,0.2218,0.2118,0,0,0,0,0]},{"header":{"parameterUnit":"m.s-1","parameterCategory":2,"la1":30.2991,"la2":30.254,"lo1":-89.0895,"lo2":-89.0444,"dy":0.0017,"dx":0.0017,"nx":28,"ny":28,"refTime":"2023-11-17T03:00:00:Z","depth":"2","parameterNumber":3,"parameterNumberName":"V-component_of_CURRENTS"},"data":[0,0,0,0,0,0,0,0,0,0,0,0,0,0,0,0,0,0,0,0,0,0,0,0,0,0,0,0,0,0,0,0,0,0,0,0,0,0,0,0,0,0,0,0,0,0,0,0,0,0,0,0,0,0,0,0,0,0,0.0205,0.0205,0,0.0182,0.0181,0.0181,0.0153,0.0153,0.0152,0.0152,0.0109,0.0108,0.0107,0,0,0,0,0,0,0,0,0,0,0,0,0,0.0196,0.0197,0.0205,0.0205,0.0205,0.0182,0.0181,0.0181,0.0153,0.0153,0.0152,0.0152,0.0109,0.0108,0.0107,0,0,0,0,0,0,0,0,0,0,0,0,0,0.0188,0.0197,0.0205,0.0189,0.0188,0.0182,0.0181,0.0181,0.0153,0.0153,0.0152,0.0152,0.0109,0.0108,0.0107,0.0108,0,0,0.0103,0.0102,0,0,0,0,0,0,0,0,0.0189,0.0188,0.0192,0.019,0.0189,0.0171,0.0162,0.0156,0.0153,0.0165,0.0152,0.0152,0.0129,0.0126,0.0121,0.0106,0.0104,0.0103,0.0102,0.0101,0.0101,0,0,0,0,0,0,0,0.0189,0.0189,0.0195,0.0192,0.019,0.0173,0.0172,0.0161,0.0148,0.0164,0.0162,0.0162,0.0128,0.0122,0.012,0.0103,0.0103,0.0101,0.0101,0.01,0.0077,0.0077,0,0,0,0,0,0,0.0197,0.019,0.0195,0.0194,0.0189,0.0174,0.0172,0.0176,0.0149,0.0145,0.0162,0.0161,0.0125,0.0121,0.0118,0.0122,0.0101,0.01,0.0099,0.0076,0.0077,0.0077,0,0,0,0,0,0,0.0197,0.0198,0.0196,0.0192,0.0191,0.0175,0.0179,0.0176,0.017,0.0148,0.0143,0.016,0.0124,0.012,0.0111,0.012,0.0099,0.0098,0.0076,0.0076,0.0077,0.0128,0,0,0,0,0,0,0.0197,0.0198,0.0203,0.0193,0.0191,0.0202,0.018,0.0176,0.0171,0.0169,0.0145,0.014,0.0123,0.0113,0.011,0.0118,0.0097,0.0076,0.0076,0.0077,0.0126,0.013,0.0133,0,0,0,0,0,0.0197,0.021,0.0203,0.0204,0.0199,0.0202,0.02,0.0186,0.0172,0.0177,0.0157,0.0141,0.0112,0.0112,0.0108,0.0116,0.0076,0.0076,0.0077,0.0124,0.0129,0.0133,0,0,0,0,0,0,0.0204,0.0208,0.02,0.0212,0.021,0.0198,0.0201,0.0189,0.0177,0.017,0.0146,0.0141,0.0133,0.0118,0.0119,0.0109,0.009,0.009,0.0128,0.0132,0.0136,0.0146,0.0096,0,0,0,0,0,0.0209,0.022,0.0218,0.0224,0.0227,0.0213,0.0211,0.0201,0.019,0.0183,0.0165,0.0145,0.0132,0.0127,0.011,0.011,0.009,0.0111,0.0114,0.0118,0.0123,0.0106,0.0109,0.0078,0.0078,0.0078,0,0,0.0216,0.0215,0.0222,0.0227,0.0222,0.0237,0.0211,0.0211,0.0221,0.0181,0.0183,0.0155,0.0133,0.0129,0.0125,0.012,0.0114,0.0118,0.0121,0.0124,0.0107,0.011,0.0113,0.0078,0.0078,0.0078,0,0,0.0237,0.0232,0.0252,0.0254,0.0252,0.0248,0.0252,0.0241,0.0236,0.0233,0.0204,0.0185,0.0166,0.0154,0.0145,0.0159,0.013,0.015,0.0183,0.0168,0.017,0.0173,0.0144,0.0143,0.0157,0.0157,0.0157,0,0.0241,0.0266,0.0258,0.0274,0.0283,0.0259,0.0284,0.0278,0.0263,0.0264,0.0239,0.0205,0.018,0.0184,0.0182,0.0168,0.0149,0.0172,0.0174,0.0175,0.0177,0.0146,0.0145,0.016,0.0159,0.0159,0.0159,0,0.0282,0.0297,0.0308,0.0326,0.0335,0.0347,0.0345,0.0345,0.0328,0.0317,0.0306,0.0264,0.0249,0.0232,0.0209,0.0209,0.0188,0.0177,0.0166,0.0183,0.015,0.0147,0.0163,0.0162,0.0161,0.0161,0,0,0.0309,0.0333,0.0338,0.0358,0.0362,0.0379,0.0394,0.041,0.0428,0.0389,0.0405,0.0359,0.0327,0.0314,0.0279,0.0257,0.0238,0.0223,0.0221,0.02,0.0193,0.0169,0.0164,0.0229,0.0229,0.0229,0.0164,0,0.0344,0.0393,0.0393,0.0441,0.0471,0.0457,0.048,0.0484,0.0477,0.0483,0.0431,0.0423,0.0365,0.0353,0.0323,0.0262,0.0235,0.0256,0.0175,0.0172,0.0154,0.0162,0.0185,0.0128,0.0161,0.0161,0.0161,0,0.0391,0.042,0.0477,0.0512,0.0525,0.0544,0.0583,0.06,0.0596,0.0585,0.0561,0.0518,0.0475,0.0422,0.033,0.0346,0.0275,0.0218,0.0215,0.0175,0.0144,0.0117,0.0122,0.0156,0.0156,0.0157,0.0157,0,0.0436,0.0479,0.053,0.0542,0.0578,0.0599,0.0616,0.063,0.0661,0.065,0.0661,0.0598,0.0573,0.0478,0.0353,0.0343,0.0245,0.0223,0.0132,0.0129,0.0124,0.0121,0.016,0.016,0.016,0.016,0.016,0,0.048,0.052,0.0555,0.0584,0.0649,0.0651,0.0715,0.072,0.074,0.0789,0.0718,0.0733,0.0586,0.051,0.0386,0.0252,0.0273,0.0138,0.0115,0.014,0.014,0.0145,0.0144,0.0157,0.0158,0.0159,0.0159,0,0.0523,0.0543,0.0606,0.0653,0.0674,0.0722,0.0781,0.0826,0.0832,0.0893,0.089,0.0834,0.0733,0.0578,0.0421,0.0306,0.0172,0.0118,0.0148,0.013,0.0054,0.0057,0.0013,0.0012,0.001,0.001,0.0009,0,0.0548,0.0587,0.0662,0.0707,0.0728,0.0796,0.0847,0.0873,0.0926,0.0962,0.0996,0.0915,0.0877,0.0631,0.0407,0.0189,0.0162,0.0063,0.0048,0.0059,0.0041,0.0045,0.0049,0.0054,0.0054,0.0053,0.0053,0,0.0599,0.0625,0.0677,0.0767,0.083,0.0912,0.098,0.1038,0.108,0.1125,0.116,0.1129,0.0904,0.068,0.0376,0.0236,0.0097,0.005,0.0065,0.0089,0.0093,0.0077,0.008,0.0051,0.0051,0.0051,0.0051,0.0051,0.0636,0.0679,0.0745,0.083,0.0909,0.1008,0.1079,0.1153,0.1244,0.1307,0.1277,0.1226,0.0982,0.0588,0.0333,0.0067,0.0085,-0.0011,-0.0008,-0.0005,0.0014,0.0016,-0.0039,-0.0039,-0.004,-0.004,-0.004,0,0.0676,0.0722,0.0802,0.0901,0.0987,0.1026,0.1158,0.1228,0.1334,0.1372,0.1389,0.1154,0.0903,0.0617,0.0218,-0.0012,-0.0016,-0.0083,-0.0042,-0.0037,-0.0033,-0.0015,-0.0077,-0.0078,-0.0079,-0.0079,0,0,0.0698,0.0769,0.0806,0.0944,0.1017,0.1142,0.1223,0.1322,0.138,0.1416,0.1376,0.1314,0.0972,0.0674,0.0365,0.0133,0.0104,0.0098,0.0156,0.0246,0.0252,0.0039,0.0076,0,0,0,0,0]}],[{"header":{"parameterUnit":"m.s-1","parameterCategory":2,"la1":30.2991,"la2":30.254,"lo1":-89.0895,"lo2":-89.0444,"dy":0.0017,"dx":0.0017,"nx":28,"ny":28,"refTime":"2023-11-17T03:00:00:Z","depth":"4","parameterNumber":2,"parameterNumberName":"U-component_of_CURRENTS"},"data":[0,0,0,0,0,0,0,0,0,0,0,0,0,0,0,0,0,0,0,0,0,0,0,0,0,0,0,0,0,0,0,0,0,0,0,0,0,0,0,0,0,0,0,0,0,0,0,0,0,0,0,0,0,0,0,0,0,0,0.1387,0.1388,0,0.1424,0.1424,0.1425,0.1465,0.1466,0.1466,0.1467,0.1526,0.1527,0.1528,0,0,0,0,0,0,0,0,0,0,0,0,0,0.1352,0.1353,0.1387,0.1388,0.1388,0.1424,0.1424,0.1425,0.1465,0.1466,0.1466,0.1467,0.1526,0.1527,0.1528,0,0,0,0,0,0,0,0,0,0,0,0,0,0.1376,0.1353,0.1387,0.1413,0.1415,0.1424,0.1424,0.1425,0.1465,0.1466,0.1467,0.1467,0.1525,0.1527,0.1528,0.1519,0,0,0.1533,0.1533,0,0,0,0,0,0,0,0,0.1374,0.1377,0.1409,0.1411,0.1414,0.1441,0.1434,0.1458,0.1465,0.1446,0.1467,0.1468,0.1499,0.1503,0.1507,0.1522,0.1524,0.1533,0.1534,0.1534,0.1535,0,0,0,0,0,0,0,0.1373,0.1376,0.1401,0.1409,0.1412,0.1423,0.1427,0.1438,0.1467,0.1447,0.1451,0.1455,0.1501,0.1505,0.1509,0.1525,0.1533,0.1534,0.1535,0.1536,0.1633,0.1635,0,0,0,0,0,0,0.1368,0.1374,0.14,0.1403,0.1396,0.1423,0.1427,0.1431,0.1467,0.1473,0.1454,0.1457,0.1502,0.1507,0.1511,0.1585,0.1534,0.1536,0.1537,0.1632,0.1634,0.1636,0,0,0,0,0,0,0.1367,0.137,0.1399,0.139,0.1394,0.1422,0.1426,0.1431,0.147,0.1471,0.1478,0.1491,0.1503,0.1509,0.1551,0.1584,0.1537,0.1538,0.163,0.1632,0.1635,0.1679,0,0,0,0,0,0,0.1366,0.1369,0.1388,0.1389,0.1394,0.1422,0.1426,0.1432,0.1469,0.1474,0.1505,0.1509,0.1504,0.1549,0.1553,0.1585,0.1539,0.1628,0.1631,0.1634,0.1675,0.1683,0.1689,0,0,0,0,0,0.1364,0.1376,0.1389,0.1393,0.1413,0.1422,0.1427,0.1449,0.1471,0.1488,0.1515,0.151,0.1572,0.1551,0.1555,0.1589,0.1626,0.163,0.1634,0.1672,0.1681,0.1689,0,0,0,0,0,0,0.1372,0.1381,0.1395,0.1411,0.1427,0.143,0.1454,0.1469,0.1504,0.1523,0.1527,0.1533,0.1587,0.1582,0.1559,0.1628,0.16,0.1605,0.1628,0.1637,0.1643,0.1652,0.154,0,0,0,0,0,0.1381,0.1399,0.1405,0.1425,0.1435,0.1454,0.1469,0.1485,0.1506,0.1524,0.1544,0.1571,0.1599,0.1614,0.1636,0.1666,0.1673,0.1693,0.17,0.1706,0.1717,0.1758,0.177,0.1648,0.1648,0.1648,0,0,0.1389,0.1401,0.1411,0.143,0.1448,0.1464,0.1467,0.1499,0.1525,0.1524,0.1579,0.1601,0.1616,0.1656,0.1679,0.1659,0.1744,0.1711,0.1715,0.1724,0.1763,0.1775,0.1786,0.1651,0.165,0.165,0,0,0.1401,0.1427,0.1441,0.1459,0.1491,0.1498,0.1515,0.1538,0.1566,0.1611,0.1625,0.1666,0.1704,0.1715,0.1727,0.1784,0.1785,0.1799,0.1833,0.1873,0.1883,0.1892,0.1911,0.1922,0.1795,0.1795,0.1795,0,0.1414,0.143,0.1449,0.1469,0.1489,0.1517,0.1537,0.1564,0.1603,0.1632,0.1641,0.172,0.1731,0.1776,0.1799,0.1799,0.182,0.1797,0.1881,0.189,0.1899,0.1916,0.1927,0.1798,0.1797,0.1797,0.1797,0,0.1427,0.1453,0.1467,0.1501,0.1526,0.1551,0.1583,0.1624,0.1666,0.1692,0.1766,0.1785,0.1829,0.1842,0.184,0.1907,0.1902,0.189,0.1857,0.1914,0.1928,0.1939,0.1801,0.1801,0.18,0.1799,0,0,0.1414,0.1463,0.1473,0.1494,0.1547,0.1563,0.1621,0.1668,0.1718,0.1769,0.1825,0.188,0.1904,0.1919,0.1925,0.1958,0.203,0.1957,0.1958,0.197,0.2118,0.1965,0.1962,0.2041,0.2043,0.2045,0.2101,0,0.142,0.1453,0.1483,0.1528,0.1544,0.1597,0.1647,0.1706,0.1762,0.1823,0.1867,0.193,0.1928,0.1962,0.1996,0.203,0.2062,0.2015,0.2067,0.2068,0.1921,0.197,0.2052,0.2109,0.2111,0.2113,0.2114,0,0.1416,0.1441,0.148,0.1539,0.1556,0.1598,0.1688,0.1738,0.1831,0.188,0.1949,0.1985,0.2053,0.204,0.2126,0.2103,0.2122,0.2137,0.2139,0.1989,0.1935,0.2043,0.2133,0.2132,0.213,0.2129,0.2128,0,0.1382,0.1436,0.1469,0.149,0.1565,0.1613,0.1668,0.1766,0.1821,0.1929,0.1983,0.2057,0.2115,0.2156,0.2194,0.2177,0.2276,0.2246,0.2122,0.2112,0.2212,0.2202,0.2307,0.2307,0.2307,0.2307,0.2307,0,0.1355,0.1386,0.1462,0.1481,0.154,0.1609,0.1695,0.1761,0.1865,0.1931,0.2018,0.2068,0.2157,0.2213,0.2224,0.2203,0.2302,0.2138,0.212,0.2228,0.2219,0.2219,0.2208,0.2309,0.2308,0.2308,0.2308,0,0.1306,0.1356,0.14,0.149,0.1524,0.1576,0.17,0.1752,0.1872,0.1959,0.2,0.2112,0.2179,0.2235,0.2305,0.2233,0.2231,0.22,0.2317,0.2303,0.2031,0.2022,0.2054,0.205,0.2046,0.2042,0.2039,0,0.1279,0.1296,0.1398,0.1431,0.1479,0.1567,0.1622,0.1744,0.1798,0.1963,0.1984,0.21,0.2156,0.2126,0.2196,0.2193,0.2168,0.2147,0.2078,0.2028,0.2008,0.2005,0.2002,0.2033,0.2032,0.2031,0.203,0,0.1225,0.128,0.132,0.1383,0.1446,0.1502,0.1591,0.1614,0.1756,0.188,0.1918,0.1941,0.2007,0.2032,0.2053,0.2047,0.2144,0.2103,0.2111,0.2046,0.2002,0.1985,0.1987,0.2015,0.2017,0.2019,0.202,0,0.1199,0.1211,0.1272,0.1316,0.1387,0.1405,0.1465,0.1518,0.1583,0.1753,0.1763,0.1877,0.1991,0.1957,0.1975,0.1956,0.1915,0.1836,0.1857,0.1873,0.1784,0.1699,0.1611,0,0,0,0,0,0.1152,0.1152,0.1191,0.1225,0.1289,0.1324,0.1424,0.1487,0.162,0.1599,0.1674,0.172,0.1739,0.1796,0.1737,0.1888,0.1923,0.181,0.1843,0.1937,0.1953,0.1863,0,0,0,0,0,0,0.1121,0.1155,0.1156,0.1137,0.1142,0.1192,0.1248,0.1338,0.1333,0.1477,0.1497,0.1604,0.1651,0.1753,0.1701,0.1717,0.1697,0.1883,0.1878,0.1927,0.1942,0.1955,0.1869,0,0,0,0,0]},{"header":{"parameterUnit":"m.s-1","parameterCategory":2,"la1":30.2991,"la2":30.254,"lo1":-89.0895,"lo2":-89.0444,"dy":0.0017,"dx":0.0017,"nx":28,"ny":28,"refTime":"2023-11-17T03:00:00:Z","depth":"4","parameterNumber":3,"parameterNumberName":"V-component_of_CURRENTS"},"data":[0,0,0,0,0,0,0,0,0,0,0,0,0,0,0,0,0,0,0,0,0,0,0,0,0,0,0,0,0,0,0,0,0,0,0,0,0,0,0,0,0,0,0,0,0,0,0,0,0,0,0,0,0,0,0,0,0,0,0.028,0.028,0,0.0276,0.0276,0.0276,0.0273,0.0273,0.0273,0.0273,0.0264,0.0263,0.0263,0,0,0,0,0,0,0,0,0,0,0,0,0,0.0261,0.0262,0.028,0.028,0.028,0.0276,0.0276,0.0276,0.0273,0.0273,0.0273,0.0273,0.0264,0.0263,0.0263,0,0,0,0,0,0,0,0,0,0,0,0,0,0.0264,0.0262,0.028,0.0279,0.0279,0.0276,0.0276,0.0276,0.0273,0.0273,0.0273,0.0273,0.0264,0.0263,0.0263,0.0259,0,0,0.0262,0.0261,0,0,0,0,0,0,0,0,0.0264,0.0265,0.0279,0.0279,0.0279,0.0276,0.0266,0.027,0.0273,0.0274,0.0273,0.0273,0.0268,0.0267,0.0265,0.0258,0.0258,0.0262,0.0261,0.0261,0.0261,0,0,0,0,0,0,0,0.0264,0.0265,0.0278,0.0279,0.0279,0.027,0.0271,0.0267,0.027,0.0274,0.0274,0.0275,0.0268,0.0265,0.0265,0.0258,0.0262,0.0261,0.0261,0.0261,0.0258,0.0259,0,0,0,0,0,0,0.0267,0.0265,0.0278,0.0278,0.0272,0.0271,0.0271,0.0276,0.027,0.0269,0.0275,0.0275,0.0266,0.0265,0.0264,0.028,0.0261,0.0261,0.026,0.0258,0.0258,0.0259,0,0,0,0,0,0,0.0267,0.0269,0.0278,0.0271,0.0272,0.0271,0.0276,0.0276,0.0281,0.0271,0.027,0.0281,0.0266,0.0265,0.0269,0.0279,0.0261,0.026,0.0258,0.0258,0.0259,0.0298,0,0,0,0,0,0,0.0267,0.0269,0.0275,0.0272,0.0273,0.0285,0.0276,0.0276,0.0281,0.0281,0.0276,0.0275,0.0266,0.027,0.0268,0.0278,0.026,0.0258,0.0258,0.0258,0.0296,0.03,0.0302,0,0,0,0,0,0.0266,0.0279,0.0276,0.0277,0.0281,0.0286,0.0286,0.0284,0.0282,0.0288,0.0284,0.0275,0.0271,0.027,0.0268,0.0278,0.0257,0.0258,0.0258,0.0295,0.0299,0.0302,0,0,0,0,0,0,0.0274,0.0279,0.0276,0.029,0.029,0.0286,0.0294,0.0289,0.0291,0.0291,0.028,0.0279,0.0285,0.0275,0.0274,0.0277,0.0262,0.0262,0.029,0.0294,0.0297,0.0307,0.0259,0,0,0,0,0,0.0278,0.0289,0.0289,0.0299,0.0303,0.0299,0.0301,0.0298,0.0297,0.0298,0.0295,0.0289,0.0284,0.0285,0.0278,0.0283,0.0258,0.0286,0.0289,0.0292,0.0298,0.0266,0.0267,0.026,0.026,0.026,0,0,0.0285,0.0288,0.0295,0.0302,0.0303,0.0316,0.0301,0.0308,0.0319,0.0296,0.0314,0.03,0.0287,0.0292,0.0293,0.0287,0.0279,0.0293,0.0295,0.03,0.0267,0.0267,0.0268,0.026,0.026,0.026,0,0,0.0305,0.0307,0.0325,0.0328,0.0332,0.0331,0.0336,0.0336,0.0339,0.0346,0.0333,0.0327,0.0324,0.0316,0.0311,0.0326,0.0295,0.0322,0.0349,0.0317,0.0318,0.0318,0.028,0.0276,0.0325,0.0325,0.0325,0,0.0312,0.0333,0.033,0.0345,0.0355,0.0342,0.0363,0.0362,0.0363,0.0369,0.0358,0.0347,0.0336,0.0338,0.0343,0.0334,0.0307,0.0338,0.0321,0.0321,0.032,0.0282,0.0277,0.0327,0.0327,0.0327,0.0327,0,0.0343,0.0361,0.0373,0.039,0.0399,0.0414,0.0414,0.0421,0.0419,0.0416,0.0416,0.0393,0.0388,0.0379,0.0368,0.0361,0.0339,0.0327,0.0314,0.0323,0.0282,0.0276,0.033,0.0329,0.0329,0.0328,0,0,0.0361,0.039,0.0396,0.0415,0.0426,0.0439,0.0456,0.0471,0.0486,0.0471,0.0483,0.0465,0.0447,0.0439,0.0415,0.0388,0.0357,0.0361,0.0358,0.0326,0.028,0.0262,0.0254,0.034,0.034,0.0339,0.025,0,0.0389,0.0432,0.0438,0.0481,0.0505,0.0502,0.0522,0.0529,0.0528,0.0534,0.0501,0.0502,0.0471,0.0466,0.0434,0.0379,0.0346,0.0382,0.0274,0.027,0.0255,0.0248,0.0338,0.0246,0.0245,0.0244,0.0243,0,0.0419,0.0446,0.0496,0.0533,0.0544,0.0567,0.0598,0.0614,0.0611,0.0606,0.0591,0.0563,0.0528,0.0496,0.0402,0.0425,0.036,0.0308,0.0303,0.0272,0.0243,0.0235,0.0233,0.0234,0.0235,0.0235,0.0236,0,0.0439,0.0486,0.0532,0.0545,0.0583,0.0607,0.0628,0.064,0.0661,0.0654,0.0656,0.0606,0.0582,0.0496,0.0395,0.0396,0.0278,0.0265,0.0184,0.0182,0.0207,0.0208,0.0195,0.0195,0.0195,0.0195,0.0196,0,0.0464,0.05,0.0548,0.0574,0.0631,0.0643,0.0695,0.0703,0.0717,0.0743,0.0698,0.0691,0.058,0.0502,0.0403,0.0276,0.0281,0.0187,0.0159,0.0225,0.0229,0.0202,0.0205,0.0192,0.0193,0.0193,0.0194,0,0.0475,0.0507,0.0562,0.0618,0.0643,0.0684,0.0744,0.0773,0.0781,0.0808,0.0807,0.0749,0.0647,0.0524,0.0379,0.0291,0.017,0.0123,0.0197,0.0176,0.009,0.0095,0.0023,0.0022,0.002,0.0019,0.0019,0,0.0484,0.0516,0.0597,0.0636,0.0667,0.073,0.0773,0.0806,0.0835,0.0842,0.0849,0.077,0.0714,0.0491,0.0361,0.0163,0.0136,0.0065,0.0082,0.0093,0.0073,0.008,0.0086,0.0017,0.0017,0.0016,0.0016,0,0.0499,0.0531,0.0577,0.0658,0.0718,0.0786,0.0846,0.0871,0.0903,0.0911,0.0877,0.0773,0.0654,0.0489,0.0333,0.0194,0.0107,0.0053,0.0054,0.0069,0.0084,0.0067,0.0075,0.0012,0.0013,0.0013,0.0013,0,0.0509,0.054,0.0603,0.0673,0.075,0.0816,0.0851,0.0882,0.0912,0.0915,0.0901,0.0782,0.0717,0.0505,0.0364,0.0222,0.0186,0.0134,0.0131,0.0133,0.0193,0.023,0.0177,0,0,0,0,0,0.0515,0.0549,0.0611,0.0688,0.0763,0.0812,0.0888,0.0914,0.0946,0.0924,0.0914,0.0805,0.0601,0.0516,0.037,0.0335,0.0156,0.0158,0.0094,-0.001,-0.0005,0.0044,0,0,0,0,0,0,0.0518,0.0573,0.0604,0.0688,0.0741,0.0827,0.0879,0.0905,0.0891,0.09,0.0794,0.0755,0.0557,0.0681,0.0362,0.0321,0.0257,0.0069,0.0066,-0.0012,-0.0008,-0.0005,0.0048,0,0,0,0,0]}]]